Wind_Speed
6 6 8 10 11 14 14 14 14 16 19 22 23 22 23 24 24 26 29 28 28 27 28 28 27 27 27 27 28 28 28 28 29 30 30 30 29 30 30 29 28 28 28 28
5 8 11 12 14 15 15 16 17 18 20 24 24 23 23 25 25 26 28 28 28 27 27 28 28 27 27 26 28 29 29 30 31 31 31 30 30 29 29 29 28 28 28 29
8 10 13 14 14 14 16 16 18 20 21 22 23 22 23 25 25 26 26 27 28 28 29 29 29 29 28 28 29 29 30 30 30 31 30 30 30 29 29 29 28 28 28 28
9 12 14 14 13 14 16 17 18 20 21 21 22 24 23 24 26 28 25 25 27 28 29 30 30 30 29 27 28 29 30 30 30 30 30 30 29 29 29 30 29 29 28 28
9 11 12 13 14 15 16 17 18 20 21 21 21 24 24 23 26 27 25 25 28 29 29 31 30 29 29 29 28 29 29 30 30 30 30 30 30 30 30 29 29 28 28 27
11 13 14 14 16 17 18 19 19 19 20 21 20 23 23 22 24 27 28 27 27 28 29 30 30 29 28 28 27 27 28 29 29 30 31 31 31 30 29 29 28 27 27 27
12 13 15 16 17 17 18 18 19 19 19 19 19 23 23 23 22 25 27 28 28 28 29 29 29 29 28 28 28 27 27 28 28 29 30 31 30 30 28 28 28 27 27 27
13 13 16 17 18 17 17 18 19 21 20 19 19 21 23 23 23 24 26 27 29 28 28 28 28 28 27 26 26 26 26 27 27 28 28 29 29 30 29 28 28 27 27 27
15 16 17 18 18 18 18 18 19 22 22 22 21 20 22 24 25 24 24 26 28 28 27 27 26 27 27 26 26 26 26 27 27 27 28 28 29 28 28 27 27 26 26 26
18 18 17 18 18 17 19 19 20 21 23 23 21 21 25 25 25 25 22 24 27 28 26 26 25 25 25 25 26 26 27 27 27 27 27 28 28 27 26 25 25 24 25 25
20 20 18 18 19 19 19 19 19 21 22 23 25 25 25 25 25 26 25 24 26 26 25 25 24 24 25 25 25 25 27 28 28 27 27 27 27 27 25 24 24 24 25 25
21 21 20 20 19 19 19 19 20 21 22 22 26 28 28 27 25 25 26 26 26 25 24 23 22 23 24 24 24 25 26 26 26 26 27 28 28 27 26 25 25 25 25 25
22 22 22 20 19 19 20 20 21 22 23 24 25 27 28 28 27 25 26 25 24 25 25 23 23 23 24 23 23 23 24 25 25 25 26 26 26 26 26 25 24 24 24 24
23 23 23 22 21 21 21 22 22 22 23 25 25 27 27 29 27 26 24 23 23 23 23 23 23 23 22 22 21 21 22 23 23 23 24 24 24 24 24 23 22 23 22 23
24 25 24 23 22 23 23 23 23 23 24 26 26 27 27 28 27 25 24 24 24 24 23 22 22 21 20 19 20 20 20 21 21 22 22 22 22 21 21 21 21 21 21 22
26 25 24 24 23 24 24 24 23 24 24 26 27 27 26 26 26 25 25 24 23 22 21 20 20 20 19 19 20 20 20 20 20 21 20 20 20 19 19 19 20 20 21 21
27 27 27 26 24 25 25 24 25 23 24 25 25 26 26 25 24 24 25 24 21 20 19 19 19 19 18 18 19 20 20 20 19 18 18 17 17 18 18 18 19 19 19 19
27 27 28 27 25 26 25 24 25 23 23 24 24 25 24 24 24 23 23 23 22 20 19 19 19 18 18 18 18 18 18 18 17 17 16 15 16 16 17 17 17 17 17 18
28 27 27 27 27 26 25 24 23 23 23 23 23 23 23 23 24 23 22 21 20 19 18 18 18 17 17 17 17 17 17 16 16 16 15 14 14 14 14 14 14 15 15 15
28 28 28 26 26 26 24 23 23 23 23 22 22 22 22 22 23 21 20 19 18 17 17 17 16 16 16 16 15 15 15 14 14 14 13 12 12 12 12 13 13 13 13 14
28 27 27 26 26 26 23 23 23 23 23 23 22 22 22 22 22 20 19 17 16 15 15 15 15 15 14 14 14 14 14 13 13 13 12 12 12 11 12 12 12 12 12 12
27 27 27 26 26 24 23 24 23 21 21 22 21 21 21 20 20 17 16 15 14 13 14 13 13 13 13 12 12 12 12 12 12 12 11 11 11 10 11 11 11 11 11 12
27 27 27 26 25 25 24 23 22 21 21 20 20 20 19 19 17 15 14 14 13 13 12 12 12 12 11 11 11 11 11 10 10 11 10 9 9 9 9 10 10 10 11 11
27 27 27 26 26 25 24 21 20 20 20 18 18 18 17 16 15 14 13 12 12 12 11 11 11 11 11 11 10 10 10 10 10 10 8 8 8 8 9 9 10 10 10 11
27 28 27 26 26 25 23 20 19 20 19 18 17 16 16 15 13 13 12 11 10 10 10 10 10 10 10 10 9 8 8 8 8 8 7 8 8 8 9 10 11 11 11 12
27 27 26 25 24 24 22 19 18 18 17 17 16 15 14 13 12 11 10 10 10 9 8 8 9 9 9 8 7 7 7 8 8 8 7 8 9 9 10 10 11 12 12 12
Wind_Direction
274 282 282 276 271 270 268 271 271 269 273 276 278 280 283 281 280 282 283 285 289 289 291 290 287 285 281 281 283 283 282 281 281 283 284 285 284 284 284 284 284 281 278 279
299 291 282 276 270 272 274 278 278 276 275 277 282 283 286 284 282 281 285 288 291 292 288 288 287 285 282 280 281 282 281 283 282 283 283 284 283 283 283 284 285 284 282 281
283 277 276 279 282 282 280 280 278 279 281 280 284 284 281 283 283 284 285 288 289 291 288 284 284 283 282 281 283 283 283 284 284 284 284 284 284 283 281 282 283 284 284 282
283 283 285 287 286 283 283 280 278 283 286 285 286 288 286 286 286 288 291 290 289 290 289 286 285 283 284 286 284 282 282 283 283 282 282 285 285 284 283 283 286 284 282 281
290 286 290 290 285 284 285 286 286 288 289 290 289 287 284 281 282 287 292 290 290 290 289 290 288 288 288 288 286 282 280 281 282 280 280 282 282 284 282 284 286 284 283 283
299 297 294 291 288 289 290 292 295 292 289 288 288 287 289 284 283 288 291 292 292 291 290 291 290 289 289 288 287 282 279 280 280 279 280 281 282 285 286 285 283 284 285 285
300 298 294 297 297 296 295 298 299 295 293 290 289 285 286 288 288 289 291 293 293 293 293 292 291 290 290 289 287 284 281 281 282 281 281 283 284 286 286 286 285 285 286 287
296 291 288 292 295 296 296 297 298 299 299 296 290 283 287 287 286 287 289 291 295 296 295 293 293 292 291 290 288 285 282 281 282 282 282 284 285 284 285 284 284 285 285 286
288 284 286 290 292 295 294 295 295 297 299 301 299 290 291 291 292 290 289 291 295 297 296 296 295 294 293 288 286 286 284 283 283 285 286 284 285 285 285 285 286 285 286 286
289 289 289 290 291 292 294 297 295 295 296 296 297 295 289 296 299 296 296 299 299 297 298 298 296 294 296 292 287 286 286 286 286 286 287 288 286 286 286 286 288 289 288 289
292 292 292 289 289 291 293 294 293 292 294 296 298 294 292 297 298 299 300 302 303 300 299 299 297 296 295 294 290 287 286 290 289 288 289 289 288 287 286 287 288 290 289 288
291 293 293 289 290 289 291 292 291 290 291 291 294 297 300 299 298 299 300 300 300 301 305 303 299 296 295 294 292 290 289 291 291 289 288 288 288 288 287 288 287 288 288 288
291 292 294 293 294 292 291 294 293 292 293 293 292 297 300 300 299 298 297 299 299 300 302 301 300 297 295 294 296 294 293 293 293 292 290 289 290 289 289 288 289 287 287 287
290 291 292 293 293 291 290 290 288 288 290 292 292 294 297 296 294 299 299 301 300 300 302 303 300 297 296 298 299 298 295 295 296 295 294 294 295 291 288 286 287 287 288 289
288 288 289 289 291 291 291 291 289 289 290 291 292 291 292 294 296 298 300 300 299 301 303 302 300 300 300 300 300 300 299 298 297 297 295 293 295 293 290 286 284 285 289 290
289 289 290 289 290 290 290 290 288 288 288 289 289 291 291 294 294 295 298 300 300 301 302 301 301 300 300 299 300 301 302 302 301 300 299 299 296 293 293 291 289 289 289 290
287 290 291 290 290 290 290 293 291 288 287 288 291 293 294 293 295 299 298 300 301 301 301 300 302 302 300 301 302 304 304 306 306 303 301 299 296 293 295 295 292 291 290 290
284 286 288 290 290 289 295 296 294 295 294 292 291 293 292 292 296 298 299 300 298 298 299 301 302 303 303 303 303 305 306 307 309 307 303 299 296 298 301 299 297 295 295 294
284 285 287 289 289 290 295 297 298 296 295 294 293 295 295 296 296 296 298 300 297 297 300 303 303 303 305 305 306 307 308 308 313 313 308 303 301 300 302 304 305 304 302 301
282 283 285 288 290 293 298 297 298 296 294 295 295 296 297 297 297 299 300 299 298 299 300 304 304 304 306 308 308 309 310 313 312 315 314 309 306 307 309 312 313 313 312 310
281 280 282 284 286 290 292 293 295 292 295 295 296 297 298 298 297 299 298 298 299 299 302 305 307 308 310 311 311 312 315 319 318 318 317 315 314 312 314 315 315 317 318 319
276 278 280 279 280 285 288 290 288 289 291 292 293 295 296 298 298 298 295 297 298 297 302 305 310 311 310 312 312 315 318 321 320 318 318 319 320 319 321 322 322 324 325 325
270 273 276 274 278 281 283 286 286 288 288 290 293 294 296 298 297 294 291 295 297 297 301 304 310 314 313 317 315 318 322 324 326 324 325 331 334 336 336 334 332 332 334 333
266 268 269 270 274 276 278 281 283 286 290 293 292 291 295 297 294 293 295 296 296 296 301 306 312 317 320 321 322 324 325 325 329 332 337 344 348 352 351 350 348 345 342 338
266 264 265 267 270 272 272 274 277 281 285 289 291 290 290 291 289 292 294 299 299 300 300 305 314 320 325 326 328 333 338 340 340 344 349 350 351 350 348 347 347 347 345 343
262 263 263 266 266 270 272 273 272 274 281 286 288 287 285 285 290 295 296 295 299 300 305 313 320 325 327 331 331 335 340 345 345 348 350 349 350 348 345 344 344 346 346 347
Height
5870 5872 5872 5872 5872 5872 5872 5871 5871 5872 5870 5868 5867 5865 5863 5861 5859 5857 5856 5853 5851 5850 5848 5846 5844 5843 5843 5843 5842 5840 5839 5838 5838 5837 5835 5834 5832 5832 5831 5830 5829 5828 5828 5827
5870 5871 5870 5869 5868 5867 5868 5868 5868 5866 5865 5863 5861 5860 5858 5856 5854 5853 5851 5849 5847 5846 5844 5841 5838 5837 5834 5836 5835 5834 5833 5833 5832 5830 5829 5828 5827 5825 5825 5825 5824 5823 5822 5821
5869 5869 5866 5866 5866 5865 5865 5865 5864 5862 5860 5858 5856 5855 5854 5851 5848 5847 5846 5844 5842 5840 5838 5836 5834 5832 5830 5829 5828 5827 5827 5826 5825 5823 5822 5822 5821 5819 5819 5818 5818 5817 5817 5816
5866 5866 5864 5863 5863 5862 5861 5860 5858 5857 5856 5854 5853 5850 5848 5846 5844 5840 5840 5839 5837 5835 5832 5829 5828 5827 5825 5822 5822 5821 5820 5819 5818 5817 5816 5815 5814 5813 5812 5812 5811 5811 5810 5809
5864 5863 5862 5861 5860 5858 5857 5856 5854 5852 5850 5849 5848 5845 5844 5842 5839 5836 5833 5832 5831 5829 5827 5824 5822 5820 5819 5817 5817 5815 5813 5812 5811 5810 5809 5808 5808 5807 5806 5805 5804 5804 5804 5803
5861 5860 5859 5858 5856 5855 5853 5852 5850 5848 5846 5845 5844 5841 5838 5836 5834 5832 5829 5827 5825 5823 5821 5818 5816 5814 5813 5811 5810 5808 5807 5806 5805 5804 5803 5802 5801 5800 5799 5798 5798 5797 5797 5796
5859 5859 5856 5854 5853 5852 5849 5848 5846 5844 5842 5841 5839 5835 5833 5830 5829 5827 5824 5822 5820 5818 5816 5813 5810 5808 5807 5805 5803 5801 5801 5800 5799 5798 5797 5795 5794 5793 5792 5792 5791 5790 5789 5788
5856 5856 5854 5851 5849 5848 5846 5844 5843 5840 5837 5835 5834 5831 5829 5825 5823 5821 5819 5817 5815 5813 5810 5808 5805 5802 5800 5799 5796 5795 5794 5793 5793 5791 5790 5789 5788 5786 5786 5785 5784 5783 5782 5781
5852 5852 5850 5848 5846 5845 5842 5840 5839 5836 5833 5831 5830 5828 5823 5820 5818 5816 5815 5813 5810 5807 5805 5802 5799 5796 5794 5792 5790 5789 5788 5788 5787 5785 5784 5783 5781 5780 5778 5777 5776 5775 5774 5773
5848 5847 5846 5844 5842 5841 5839 5836 5834 5832 5828 5826 5825 5823 5819 5814 5813 5811 5808 5807 5804 5801 5799 5796 5793 5790 5789 5786 5785 5783 5782 5782 5780 5779 5777 5776 5774 5773 5772 5770 5769 5768 5767 5766
5844 5842 5841 5840 5837 5837 5835 5833 5830 5828 5825 5822 5819 5820 5815 5810 5808 5807 5804 5802 5799 5795 5792 5790 5788 5786 5783 5781 5779 5777 5776 5775 5774 5772 5771 5770 5768 5767 5765 5764 5763 5762 5761 5760
5839 5837 5836 5835 5833 5831 5830 5828 5826 5824 5821 5818 5815 5815 5810 5806 5804 5802 5799 5797 5794 5791 5788 5786 5783 5781 5778 5775 5773 5772 5770 5769 5767 5766 5765 5763 5761 5760 5759 5758 5756 5756 5755 5753
5835 5833 5831 5830 5830 5827 5825 5823 5821 5818 5816 5813 5811 5810 5805 5802 5799 5797 5794 5792 5790 5787 5784 5781 5778 5776 5773 5771 5769 5767 5765 5764 5762 5760 5758 5757 5755 5754 5753 5751 5750 5749 5748 5747
5830 5827 5826 5825 5824 5822 5820 5819 5816 5814 5811 5808 5807 5804 5801 5798 5794 5792 5789 5787 5785 5782 5779 5776 5774 5771 5769 5766 5764 5762 5760 5758 5757 5755 5752 5751 5749 5747 5746 5745 5744 5743 5742 5741
5824 5822 5820 5819 5817 5816 5814 5812 5811 5808 5806 5803 5801 5798 5796 5794 5790 5787 5785 5783 5781 5778 5775 5773 5770 5767 5764 5762 5760 5758 5756 5754 5752 5749 5747 5745 5743 5742 5740 5739 5739 5738 5737 5736
5818 5816 5814 5813 5812 5810 5807 5806 5805 5803 5801 5798 5796 5793 5790 5787 5785 5783 5780 5778 5776 5773 5770 5768 5765 5762 5760 5758 5756 5754 5752 5750 5747 5744 5742 5741 5739 5737 5736 5735 5733 5732 5731 5730
5812 5810 5808 5806 5806 5803 5801 5801 5799 5796 5795 5792 5790 5788 5784 5782 5779 5777 5775 5773 5771 5768 5766 5763 5761 5759 5756 5754 5752 5750 5748 5745 5743 5740 5739 5737 5735 5733 5731 5730 5729 5727 5726 5724
5806 5804 5802 5799 5799 5796 5798 5795 5793 5791 5789 5787 5784 5782 5779 5777 5774 5772 5770 5768 5766 5764 5762 5760 5757 5755 5753 5751 5749 5746 5744 5742 5739 5737 5735 5733 5731 5730 5728 5726 5724 5723 5721 5719
5799 5797 5795 5793 5791 5789 5791 5789 5787 5785 5783 5781 5778 5776 5774 5772 5769 5767 5766 5763 5761 5759 5757 5755 5753 5751 5749 5747 5745 5743 5741 5738 5736 5734 5731 5730 5728 5726 5725 5723 5721 5719 5717 5715
5792 5790 5789 5787 5785 5784 5786 5783 5781 5780 5778 5776 5773 5771 5769 5767 5765 5763 5761 5759 5757 5755 5753 5751 5749 5747 5745 5744 5742 5740 5738 5735 5733 5731 5729 5727 5725 5723 5722 5720 5718 5716 5714 5712
5785 5784 5783 5781 5779 5778 5779 5777 5776 5776 5774 5771 5768 5766 5764 5762 5760 5758 5756 5754 5753 5751 5749 5748 5746 5744 5742 5740 5739 5737 5735 5733 5730 5728 5726 5724 5723 5721 5719 5718 5716 5714 5712 5710
5777 5777 5776 5775 5774 5775 5773 5772 5771 5769 5767 5764 5762 5761 5759 5757 5755 5753 5752 5750 5749 5748 5746 5745 5743 5741 5739 5738 5736 5735 5733 5731 5729 5727 5725 5723 5721 5719 5717 5716 5714 5712 5710 5708
5769 5769 5768 5769 5769 5768 5767 5765 5764 5762 5761 5759 5757 5756 5754 5752 5751 5749 5748 5747 5746 5745 5744 5742 5741 5739 5737 5736 5734 5733 5731 5729 5727 5725 5723 5722 5720 5718 5716 5714 5713 5711 5709 5707
5760 5761 5760 5759 5761 5760 5760 5760 5759 5757 5755 5754 5753 5752 5750 5748 5747 5746 5745 5744 5744 5743 5741 5740 5739 5737 5736 5734 5733 5731 5729 5727 5726 5724 5722 5721 5719 5718 5716 5714 5712 5710 5709 5706
5751 5751 5751 5751 5753 5753 5753 5753 5753 5752 5751 5750 5749 5748 5747 5745 5744 5743 5742 5742 5741 5740 5739 5738 5737 5735 5734 5733 5731 5730 5728 5726 5725 5723 5722 5721 5719 5717 5716 5714 5712 5710 5708 5706
5743 5742 5743 5744 5746 5746 5745 5747 5748 5747 5747 5746 5746 5745 5743 5741 5740 5739 5739 5739 5738 5738 5737 5736 5735 5734 5733 5731 5730 5729 5727 5726 5725 5723 5722 5720 5719 5717 5715 5713 5711 5709 5707 5705